Sioux Falls, SD

4:46 PM CST on February 22, 2018 (GMT -0600)
Foss

Weather History for KFSD - December, 2013

Change the Weather History Date:

Friday, December 13, 2013

  Actual Average Record
Temperature  
Mean Temperature 11 °F 19 °F  
Max Temperature 18 °F 29 °F 60 °F (1921)
Min Temperature 4 °F 10 °F -28 °F (1903)
Degree Days  
Heating Degree Days 54 46  
Month to date heating degree days 698 566  
Since 1 July heating degree days 2319 2278  
Cooling Degree Days 0 0  
Month to date cooling degree days 0 0  
Year to date cooling degree days 787 690  
Moisture  
Dew Point 9 °F    
Average Humidity 86    
Maximum Humidity 96    
Minimum Humidity 76    
Precipitation  
Precipitation T in 0.02 in 0.47 in (1937)
Month to date precipitation 0.81 0.34  
Year to date precipitation 25.47 26.03  
Snow  
Snow T in 0.20 in 3.00 in (1937)
Month to date snowfall 8.8 3.6  
Since 1 July snowfall 16.7 12.3  
Snow Depth 5.00 in    
Sea Level Pressure  
Sea Level Pressure 30.14 in    
Wind  
Wind Speed 13 mph (NE)    
Max Wind Speed 22 mph    
Max Gust Speed 26 mph    
Visibility 9 miles    
Events Snow    
T = Trace of Precipitation, MM = Missing Value Source: NWS Daily Summary

Daily Weather History Graph

Daily Weather History Graph

Search for Another Location

Airport or City:

Trip Planner

Search our weather history database for the weather conditions in past years. The results will help you decide how hot, cold, wet, or windy it might be!

Date:

Astronomy

Dec. 13, 2013 Rise Set
Actual Time 7:51 AM CST 4:50 PM CST
Civil Twilight 7:19 AM CST 5:23 PM CST
Nautical Twilight 6:43 AM CST 5:59 PM CST
Astronomical Twilight 6:08 AM CST 6:34 PM CST
Moon 2:38 PM CST (12/13) 4:11 AM CST (12/13)
Length of Visible Light 10h 04m
Length of Day
8h 58m
Waxing Gibbous, 88% of the Moon is Illuminated
Dec 13
Waxing Gibbous
Dec 17
Full
Dec 25
Last Quarter
Jan 1
New
Jan 7
First Quarter

Hourly Weather History & Observations

Time (CST) Temp. Windchill Dew Point Humidity Pressure Visibility Wind Dir Wind Speed Gust Speed Precip Events Conditions
12:56 AM 6.1 °F -0.9 °F 3.9 °F 91% 30.10 in 8.0 mi NE 3.5 mph - N/A   Clear
1:56 AM 6.1 °F -5.6 °F 1.9 °F 83% 30.09 in 8.0 mi NNE 6.9 mph - N/A   Clear
2:56 AM 5.0 °F -4.1 °F 3.0 °F 92% 30.08 in 9.0 mi NNE 4.6 mph - N/A   Clear
3:56 AM 6.1 °F -0.9 °F 3.0 °F 87% 30.07 in 10.0 mi NE 3.5 mph - N/A   Clear
4:56 AM 9.0 °F -0.9 °F 7.0 °F 92% 30.07 in 10.0 mi NE 5.8 mph - N/A   Mostly Cloudy
5:56 AM 12.9 °F 1.6 °F 10.9 °F 92% 30.06 in 10.0 mi NE 8.1 mph - N/A   Overcast
6:56 AM 15.1 °F 1.1 °F 12.0 °F 88% 30.07 in 10.0 mi ENE 12.7 mph - N/A   Mostly Cloudy
7:56 AM 15.1 °F 1.8 °F 12.0 °F 88% 30.08 in 10.0 mi ENE 11.5 mph - N/A   Mostly Cloudy
8:56 AM 15.1 °F 0.5 °F 10.9 °F 84% 30.10 in 8.0 mi East 13.8 mph - N/A   Mostly Cloudy
9:56 AM 15.1 °F -0.6 °F 10.0 °F 80% 30.13 in 8.0 mi ENE 16.1 mph - N/A   Overcast
10:56 AM 16.0 °F 1.7 °F 10.0 °F 77% 30.12 in 10.0 mi ENE 13.8 mph 23.0 mph N/A   Overcast
11:56 AM 18.0 °F 2.2 °F 12.0 °F 78% 30.12 in 10.0 mi ENE 18.4 mph - N/A   Mostly Cloudy
12:56 PM 18.0 °F 2.6 °F 12.0 °F 78% 30.11 in 8.0 mi ENE 17.3 mph - N/A   Mostly Cloudy
1:34 PM 18.0 °F 1.7 °F 12.0 °F 78% 30.02 in 7.0 mi ENE 19.6 mph - N/A   Overcast
1:56 PM 17.1 °F 1.5 °F 12.0 °F 81% 30.11 in 7.0 mi ENE 17.3 mph - N/A   Overcast
2:20 PM 16.0 °F -0.4 °F 10.9 °F 81% 30.01 in 7.0 mi ENE 18.4 mph - N/A   Mostly Cloudy
2:56 PM 16.0 °F -0.4 °F 10.9 °F 81% 30.12 in 8.0 mi ENE 18.4 mph - N/A   Mostly Cloudy
3:56 PM 15.1 °F -0.6 °F 10.0 °F 80% 30.15 in 7.0 mi ENE 16.1 mph - N/A   Overcast
4:43 PM 15.1 °F -1.1 °F 10.0 °F 80% 30.07 in 10.0 mi NE 17.3 mph - N/A   Overcast
4:56 PM 15.1 °F -0.1 °F 10.0 °F 80% 30.17 in 10.0 mi NE 15.0 mph - N/A   Overcast
5:03 PM 15.1 °F -0.1 °F 10.0 °F 80% 30.08 in 10.0 mi NE 15.0 mph - N/A   Overcast
5:22 PM 15.1 °F -0.1 °F 10.0 °F 80% 30.08 in 10.0 mi NE 15.0 mph - N/A   Overcast
5:56 PM 14.0 °F -0.8 °F 9.0 °F 80% 30.19 in 10.0 mi NE 13.8 mph - N/A   Overcast
6:56 PM 12.9 °F -2.2 °F 8.1 °F 81% 30.21 in 9.0 mi ENE 13.8 mph - 0.00 in Snow Light Snow
7:18 PM 12.9 °F -2.8 °F 8.1 °F 81% 30.13 in 9.0 mi NE 15.0 mph - 0.00 in Snow Light Snow
7:50 PM 12.9 °F -2.8 °F 8.1 °F 81% 30.15 in 9.0 mi NE 15.0 mph - 0.00 in Snow Light Snow
7:56 PM 12.9 °F -2.8 °F 8.1 °F 81% 30.23 in 9.0 mi NE 15.0 mph - 0.00 in Snow Light Snow
8:56 PM 12.0 °F -5.6 °F 7.0 °F 80% 30.26 in 9.0 mi NNE 18.4 mph - 0.00 in Snow Light Snow
8:59 PM 12.0 °F -2.7 °F 7.0 °F 80% 30.17 in 9.0 mi NE 12.7 mph - 0.00 in Snow Light Snow
9:08 PM 12.0 °F -4.0 °F 7.0 °F 80% 30.17 in 9.0 mi NE 15.0 mph - 0.00 in Snow Light Snow
9:56 PM 10.9 °F -4.7 °F 6.1 °F 81% 30.27 in 9.0 mi NE 13.8 mph - 0.00 in Snow Light Snow
10:56 PM 10.9 °F -3.4 °F 6.1 °F 81% 30.28 in 9.0 mi NE 11.5 mph - 0.00 in Snow Light Snow
11:56 PM 10.0 °F -5.9 °F 6.1 °F 84% 30.29 in 6.0 mi NNE 13.8 mph - 0.00 in Snow Light Snow